Location: Caltech
(34.1382°N, 118.1253°W)
Time: 15:12:26
(UTC-07:00)

Aureole 3 Rocket - Visible Passes

Search period start: 27 April 2015 00:00
Search period end: 07 May 2015 00:00
Orbit: 399 x 1752 km, 82.5° (Epoch: 27 April)

Date Brightness Start Highest point End Pass type
(mag) Time Alt. Az. Time Alt. Az. Time Alt. Az.
27 Apr 5.7 00:13:23 10° N 00:20:25 41° ENE 00:20:25 41° ENE visible
27 Apr 5.7 02:00:53 10° NNW 02:07:14 41° WNW 02:07:14 41° WNW visible
27 Apr 6.4 23:22:44 10° NNE 23:29:02 22° ENE 23:29:02 22° ENE visible
28 Apr 5.2 01:08:30 10° N 01:15:51 67° NNW 01:15:51 67° NNW visible
28 Apr 6.6 02:58:53 10° NW 03:02:40 16° WNW 03:02:40 16° WNW visible
29 Apr 5.4 00:16:44 10° N 00:24:28 53° ENE 00:24:28 53° ENE visible
29 Apr 5.9 02:04:52 10° NNW 02:11:17 34° WNW 02:11:17 34° WNW visible
29 Apr 6.1 23:25:38 10° NNE 23:33:05 30° ENE 23:33:05 30° ENE visible
30 Apr 5.3 01:12:12 10° NNW 01:19:54 61° NW 01:19:54 61° NW visible
30 Apr 6.8 03:04:22 10° WNW 03:06:43 12° WNW 03:06:43 12° WNW visible
30 Apr 6.7 22:36:05 10° NE 22:40:25 15° ENE 22:41:42 14° ENE visible
01 May 5.2 00:20:11 10° N 00:28:31 67° NE 00:28:31 67° NE visible
01 May 6.2 02:09:03 10° NNW 02:15:20 27° WNW 02:15:20 27° WNW visible
01 May 5.8 23:28:46 10° N 23:37:09 39° ENE 23:37:09 39° ENE visible
02 May 5.5 01:16:01 10° NNW 01:23:58 51° WNW 01:23:58 51° WNW visible
02 May 6.5 22:38:20 10° NNE 22:44:39 20° ENE 22:45:48 20° ENE visible
03 May 5.1 00:23:45 10° N 00:32:36 79° N 00:32:36 79° N visible
03 May 6.5 02:13:29 10° NW 02:19:25 21° WNW 02:19:25 21° WNW visible
03 May 5.5 23:32:06 10° N 23:41:15 50° ENE 23:41:15 50° ENE visible
04 May 5.8 01:19:57 10° NNW 01:28:04 41° WNW 01:28:04 41° WNW visible
04 May 6.2 22:41:09 10° NNE 22:48:49 27° ENE 22:49:54 27° E visible
05 May 5.1 00:27:26 10° N 00:36:43 74° WNW 00:36:43 74° WNW visible
05 May 6.7 02:18:23 10° NW 02:23:32 16° WNW 02:23:32 16° WNW visible
05 May 6.8 21:52:10 10° NE 21:55:42 13° ENE 21:58:33 12° E visible
05 May 5.2 23:35:32 10° N 23:45:18 64° E 23:45:22 64° E visible
06 May 6.1 01:24:03 10° NNW 01:32:12 32° W 01:32:12 32° W visible
06 May 5.9 22:44:15 10° NNE 22:52:55 35° ENE 22:54:02 34° E visible
